| time (UTC) | temp C | wind direction | speed KPH | gust KPH | rain 1hr cm | rain 24hr cm | rain mn cm | humidity % | barometer mb |
| 20260504110556 | 8 | 209 | 6.4 | 16.1 | 0.00 | 0.03 | 0.03 | 78 | 1005.7 |
| 20260504100549 | 7 | 173 | 4.8 | 20.9 | 0.03 | 0.03 | 0.03 | 82 | 1006.0 |
| 20260504081536 | 7 | 147 | 3.2 | 12.9 | 0.00 | 0.00 | 0.00 | 68 | 1006.5 |
| 20260504081035 | 7 | 216 | 3.2 | 12.9 | 0.00 | 0.00 | 0.00 | 67 | 1006.6 |
| 20260504080534 | 7 | 219 | 3.2 | 12.9 | 0.00 | 0.00 | 0.00 | 67 | 1006.7 |
| 20260504050517 | 6 | 229 | 0.0 | 6.4 | 0.00 | 0.00 | 0.00 | 52 | 1007.0 |
| 20260504050016 | 6 | 220 | 1.6 | 6.4 | 0.00 | 0.00 | 0.00 | 52 | 1007.1 |
| 20260504045515 | 6 | 202 | 1.6 | 8.0 | 0.00 | 0.00 | 0.00 | 52 | 1007.0 |
| 20260504045015 | 6 | 128 | 1.6 | 8.0 | 0.00 | 0.00 | 0.00 | 52 | 1007.1 |
| 20260504044516 | 6 | 211 | 0.0 | 3.2 | 0.00 | 0.00 | 0.00 | 52 | 1007.2 |
| 20260504044016 | 6 | 212 | 1.6 | 3.2 | 0.00 | 0.00 | 0.00 | 52 | 1007.3 |
| 20260504043514 | 6 | 212 | 0.0 | 4.8 | 0.00 | 0.00 | 0.00 | 53 | 1007.3 |
| 20260504043014 | 6 | 217 | 1.6 | 6.4 | 0.00 | 0.00 | 0.00 | 53 | 1007.3 |
| 20260504042514 | 6 | 230 | 1.6 | 6.4 | 0.00 | 0.00 | 0.00 | 53 | 1007.3 |
| 20260504042012 | 6 | 227 | 0.0 | 8.0 | 0.00 | 0.00 | 0.00 | 53 | 1007.4 |
| 20260504041514 | 6 | 227 | 1.6 | 8.0 | 0.00 | 0.00 | 0.00 | 52 | 1007.4 |
| 20260504041011 | 6 | 198 | 1.6 | 4.8 | 0.00 | 0.00 | 0.00 | 53 | 1007.3 |
| 20260504040510 | 6 | 239 | 1.6 | 4.8 | 0.00 | 0.00 | 0.00 | 53 | 1007.4 |
| 20260504040009 | 6 | 239 | 1.6 | 4.8 | 0.00 | 0.00 | 0.00 | 53 | 1007.3 |
| 20260504035511 | 6 | 239 | 1.6 | 8.0 | 0.00 | 0.00 | 0.00 | 52 | 1007.4 |
| 20260504035013 | 6 | 131 | 1.6 | 8.0 | 0.00 | 0.00 | 0.00 | 53 | 1007.3 |
| 20260504034509 | 6 | 173 | 1.6 | 8.0 | 0.00 | 0.00 | 0.00 | 54 | 1007.3 |
| 20260504034014 | 6 | 164 | 1.6 | 8.0 | 0.00 | 0.00 | 0.00 | 54 | 1007.3 |
| 20260504033509 | 6 | 134 | 1.6 | 6.4 | 0.00 | 0.00 | 0.00 | 53 | 1007.3 |
| 20260504033009 | 6 | 211 | 0.0 | 6.4 | 0.00 | 0.00 | 0.00 | 53 | 1007.3 |
| 20260504032510 | 6 | 219 | 1.6 | 6.4 | 0.00 | 0.00 | 0.00 | 53 | 1007.3 |
| 20260504032009 | 6 | 162 | 1.6 | 6.4 | 0.00 | 0.00 | 0.00 | 53 | 1007.3 |
| 20260504031509 | 6 | 130 | 1.6 | 8.0 | 0.00 | 0.00 | 0.00 | 54 | 1007.4 |
| 20260504031012 | 6 | 165 | 1.6 | 6.4 | 0.00 | 0.00 | 0.00 | 54 | 1007.3 |
| 20260504030507 | 6 | 131 | 1.6 | 6.4 | 0.00 | 0.00 | 0.00 | 54 | 1007.3 |
| 20260504030007 | 6 | 131 | 1.6 | 6.4 | 0.00 | 0.00 | 0.00 | 55 | 1007.3 |
| 20260504025508 | 6 | 131 | 3.2 | 6.4 | 0.00 | 0.03 | 0.00 | 56 | 1007.4 |
| 20260504025008 | 6 | 125 | 1.6 | 6.4 | 0.00 | 0.03 | 0.00 | 56 | 1007.5 |
| 20260504024507 | 6 | 154 | 0.0 | 4.8 | 0.00 | 0.03 | 0.00 | 56 | 1007.5 |
| 20260504024007 | 6 | 154 | 0.0 | 4.8 | 0.00 | 0.03 | 0.00 | 56 | 1007.5 |
| 20260504023507 | 6 | 154 | 0.0 | 6.4 | 0.00 | 0.03 | 0.00 | 56 | 1007.6 |
| 20260504023007 | 6 | 154 | 1.6 | 6.4 | 0.00 | 0.03 | 0.00 | 56 | 1007.6 |
| 20260504022511 | 6 | 158 | 0.0 | 3.2 | 0.00 | 0.03 | 0.00 | 57 | 1007.7 |
| 20260504022006 | 6 | 158 | 0.0 | 3.2 | 0.00 | 0.03 | 0.00 | 57 | 1007.7 |
| 20260504021507 | 6 | 158 | 0.0 | 3.2 | 0.00 | 0.03 | 0.00 | 57 | 1007.7 |
| 20260504021009 | 6 | 158 | 0.0 | 3.2 | 0.00 | 0.03 | 0.00 | 57 | 1007.7 |
| 20260504020505 | 6 | 158 | 0.0 | 1.6 | 0.00 | 0.03 | 0.00 | 57 | 1007.7 |
| 20260504020005 | 6 | 158 | 0.0 | 1.6 | 0.00 | 0.03 | 0.00 | 57 | 1007.7 |
| 20260504015508 | 6 | 158 | 0.0 | 3.2 | 0.00 | 0.08 | 0.00 | 57 | 1007.7 |
| 20260504015012 | 6 | 158 | 0.0 | 3.2 | 0.00 | 0.08 | 0.00 | 57 | 1007.8 |
| 20260504014507 | 6 | 157 | 0.0 | 3.2 | 0.00 | 0.08 | 0.00 | 56 | 1007.8 |
| 20260504014006 | 6 | 157 | 0.0 | 3.2 | 0.00 | 0.08 | 0.00 | 56 | 1007.8 |
| 20260504013507 | 6 | 157 | 0.0 | 3.2 | 0.00 | 0.08 | 0.00 | 55 | 1007.8 |
| 20260504013010 | 6 | 157 | 0.0 | 3.2 | 0.00 | 0.08 | 0.00 | 55 | 1007.8 |
| 20260504012508 | 6 | 157 | 0.0 | 4.8 | 0.00 | 0.08 | 0.00 | 55 | 1007.7 |
| 20260504012005 | 6 | 157 | 1.6 | 4.8 | 0.00 | 0.08 | 0.00 | 55 | 1007.7 |
| 20260504011505 | 6 | 160 | 0.0 | 3.2 | 0.00 | 0.08 | 0.00 | 54 | 1007.7 |
| 20260504011004 | 6 | 161 | 0.0 | 4.8 | 0.00 | 0.08 | 0.00 | 53 | 1007.7 |
| 20260504010505 | 6 | 161 | 1.6 | 4.8 | 0.00 | 0.08 | 0.00 | 52 | 1007.6 |
| 20260504010004 | 6 | 161 | 0.0 | 3.2 | 0.00 | 0.08 | 0.00 | 52 | 1007.6 |
| 20260504005503 | 6 | 161 | 0.0 | 3.2 | 0.00 | 0.10 | 0.00 | 53 | 1007.5 |
| 20260504005004 | 6 | 161 | 0.0 | 1.6 | 0.00 | 0.10 | 0.00 | 52 | 1007.5 |
| 20260504004506 | 6 | 161 | 0.0 | 1.6 | 0.00 | 0.10 | 0.00 | 53 | 1007.4 |
| 20260504004002 | 7 | 161 | 0.0 | 1.6 | 0.00 | 0.10 | 0.00 | 54 | 1007.4 |
| 20260504003502 | 7 | 161 | 0.0 | 3.2 | 0.00 | 0.10 | 0.00 | 53 | 1007.3 |
| 20260504003003 | 7 | 161 | 0.0 | 3.2 | 0.00 | 0.10 | 0.00 | 53 | 1007.3 |
| 20260504002502 | 7 | 161 | 0.0 | 3.2 | 0.00 | 0.10 | 0.00 | 52 | 1007.3 |
| 20260504002003 | 7 | 161 | 0.0 | 3.2 | 0.00 | 0.10 | 0.00 | 53 | 1007.3 |
| 20260504001503 | 7 | 161 | 0.0 | 3.2 | 0.00 | 0.10 | 0.00 | 51 | 1007.2 |
| 20260504001002 | 8 | 161 | 0.0 | 1.6 | 0.00 | 0.10 | 0.00 | 50 | 1007.3 |
| 20260504000502 | 8 | 161 | 0.0 | 1.6 | 0.00 | 0.10 | 0.00 | 50 | 1007.2 |
| 20260504000001 | 8 | 161 | 0.0 | 1.6 | 0.00 | 0.10 | 0.00 | 49 | 1007.2 |
| 20260503235503 | 8 | 161 | 0.0 | 3.2 | 0.00 | 0.10 | 0.00 | 50 | 1007.2 |
| 20260503235001 | 8 | 161 | 0.0 | 3.2 | 0.00 | 0.10 | 0.00 | 48 | 1007.2 |
| 20260503234502 | 9 | 161 | 1.6 | 3.2 | 0.00 | 0.10 | 0.00 | 47 | 1007.1 |
| 20260503234003 | 9 | 161 | 0.0 | 4.8 | 0.00 | 0.10 | 0.00 | 48 | 1007.2 |
| 20260503233502 | 10 | 161 | 0.0 | 4.8 | 0.00 | 0.10 | 0.00 | 45 | 1007.1 |
| 20260503233001 | 10 | 159 | 1.6 | 3.2 | 0.00 | 0.10 | 0.00 | 47 | 1007.0 |
| 20260503232502 | 10 | 159 | 1.6 | 3.2 | 0.00 | 0.10 | 0.00 | 45 | 1007.0 |
| 20260503232002 | 10 | 157 | 0.0 | 4.8 | 0.00 | 0.10 | 0.00 | 46 | 1007.0 |
| 20260503231502 | 10 | 158 | 0.0 | 4.8 | 0.00 | 0.10 | 0.00 | 46 | 1007.0 |
| 20260503231101 | 10 | 160 | 1.6 | 4.8 | 0.00 | 0.10 | 0.00 | 45 | 1007.0 |
| 20260503230600 | 10 | 189 | 1.6 | 4.8 | 0.00 | 0.10 | 0.00 | 47 | 1007.0 |
| 20260503230059 | 10 | 189 | 0.0 | 3.2 | 0.00 | 0.10 | 0.00 | 52 | 1007.1 |
| 20260503225603 | 10 | 189 | 1.6 | 3.2 | 0.00 | 0.15 | 0.00 | 48 | 1007.1 |
| 20260503225059 | 10 | 189 | 1.6 | 4.8 | 0.00 | 0.15 | 0.00 | 47 | 1007.1 |
| 20260503224601 | 10 | 189 | 1.6 | 4.8 | 0.00 | 0.15 | 0.00 | 46 | 1007.1 |
| 20260503224102 | 10 | 182 | 1.6 | 4.8 | 0.00 | 0.15 | 0.00 | 46 | 1007.1 |
| 20260503223559 | 10 | 182 | 1.6 | 4.8 | 0.00 | 0.15 | 0.00 | 45 | 1007.1 |
| 20260503223059 | 10 | 182 | 0.0 | 3.2 | 0.00 | 0.15 | 0.00 | 47 | 1007.1 |
| 20260503222559 | 10 | 182 | 1.6 | 3.2 | 0.00 | 0.15 | 0.00 | 47 | 1007.1 |
| 20260503222101 | 10 | 182 | 0.0 | 3.2 | 0.00 | 0.15 | 0.00 | 48 | 1007.1 |
| 20260503221605 | 10 | 182 | 1.6 | 4.8 | 0.00 | 0.15 | 0.00 | 46 | 1007.2 |
| 20260503221059 | 10 | 182 | 1.6 | 4.8 | 0.00 | 0.15 | 0.00 | 46 | 1007.2 |
| 20260503220558 | 10 | 182 | 1.6 | 3.2 | 0.00 | 0.15 | 0.00 | 47 | 1007.1 |
| 20260503220105 | 10 | 182 | 0.0 | 3.2 | 0.00 | 0.15 | 0.00 | 45 | 1007.1 |
| 20260503215557 | 10 | 182 | 0.0 | 3.2 | 0.00 | 0.15 | 0.00 | 44 | 1007.1 |
| 20260503215057 | 10 | 182 | 0.0 | 3.2 | 0.00 | 0.15 | 0.00 | 43 | 1007.1 |
| 20260503214558 | 10 | 182 | 1.6 | 3.2 | 0.00 | 0.15 | 0.00 | 46 | 1007.1 |
| 20260503214057 | 10 | 182 | 0.0 | 4.8 | 0.00 | 0.15 | 0.00 | 44 | 1007.1 |
| 20260503213557 | 10 | 182 | 3.2 | 4.8 | 0.00 | 0.15 | 0.00 | 47 | 1007.1 |
| 20260503213057 | 10 | 178 | 1.6 | 3.2 | 0.00 | 0.15 | 0.00 | 46 | 1007.1 |
| 20260503212557 | 10 | 178 | 0.0 | 3.2 | 0.00 | 0.15 | 0.00 | 46 | 1007.2 |
| 20260503212056 | 10 | 178 | 0.0 | 3.2 | 0.00 | 0.15 | 0.00 | 46 | 1007.1 |
| 20260503211557 | 10 | 178 | 0.0 | 4.8 | 0.00 | 0.15 | 0.00 | 45 | 1007.1 |
| 20260503211056 | 10 | 179 | 1.6 | 4.8 | 0.00 | 0.15 | 0.00 | 48 | 1007.1 |
| 20260503210555 | 10 | 179 | 1.6 | 3.2 | 0.00 | 0.15 | 0.00 | 44 | 1007.1 |
| 20260503210059 | 10 | 179 | 0.0 | 3.2 | 0.00 | 0.15 | 0.00 | 45 | 1007.0 |
| 20260503205559 | 10 | 179 | 1.6 | 4.8 | 0.00 | 0.15 | 0.00 | 46 | 1007.0 |
| 20260503205056 | 10 | 169 | 0.0 | 4.8 | 0.00 | 0.15 | 0.00 | 45 | 1007.1 |
| 20260503204607 | 10 | 169 | 1.6 | 4.8 | 0.00 | 0.15 | 0.00 | 45 | 1007.1 |
| 20260503204055 | 10 | 159 | 1.6 | 4.8 | 0.00 | 0.15 | 0.00 | 46 | 1007.0 |
| 20260503203555 | 10 | 159 | 0.0 | 4.8 | 0.00 | 0.15 | 0.00 | 46 | 1007.1 |
| 20260503203100 | 10 | 159 | 1.6 | 4.8 | 0.00 | 0.15 | 0.00 | 44 | 1007.1 |
| 20260503202553 | 10 | 153 | 1.6 | 4.8 | 0.00 | 0.15 | 0.00 | 47 | 1007.2 |
| 20260503202053 | 10 | 152 | 1.6 | 6.4 | 0.00 | 0.15 | 0.00 | 47 | 1007.2 |
| 20260503201554 | 10 | 101 | 1.6 | 6.4 | 0.00 | 0.15 | 0.00 | 45 | 1007.3 |
| 20260503201052 | 10 | 229 | 1.6 | 6.4 | 0.00 | 0.15 | 0.00 | 46 | 1007.3 |
| 20260503200551 | 10 | 229 | 3.2 | 6.4 | 0.00 | 0.15 | 0.00 | 47 | 1007.4 |
| 20260503200050 | 10 | 360 | 3.2 | 6.4 | 0.00 | 0.15 | 0.00 | 43 | 1007.5 |
| 20260503195549 | 10 | 309 | 1.6 | 6.4 | 0.00 | 0.15 | 0.00 | 47 | 1007.5 |
| 20260503195049 | 10 | 266 | 1.6 | 6.4 | 0.00 | 0.15 | 0.00 | 49 | 1007.5 |
| 20260503194606 | 10 | 267 | 1.6 | 8.0 | 0.00 | 0.15 | 0.00 | 49 | 1007.6 |
| 20260503194048 | 10 | 220 | 3.2 | 8.0 | 0.00 | 0.15 | 0.00 | 50 | 1007.6 |
| 20260503193547 | 10 | 236 | 1.6 | 8.0 | 0.00 | 0.15 | 0.00 | 52 | 1007.8 |
| 20260503193046 | 9 | 250 | 3.2 | 8.0 | 0.00 | 0.15 | 0.00 | 50 | 1007.8 |
| 20260503192545 | 9 | 251 | 1.6 | 8.0 | 0.00 | 0.15 | 0.00 | 51 | 1007.9 |
| 20260503192045 | 9 | 199 | 3.2 | 8.0 | 0.00 | 0.15 | 0.00 | 51 | 1007.9 |
| 20260503191544 | 9 | 225 | 3.2 | 8.0 | 0.00 | 0.15 | 0.00 | 52 | 1007.9 |
| 20260503191043 | 9 | 255 | 4.8 | 8.0 | 0.00 | 0.15 | 0.00 | 52 | 1008.0 |
| 20260503190542 | 9 | 238 | 3.2 | 9.7 | 0.00 | 0.15 | 0.00 | 51 | 1008.1 |
| 20260503190049 | 9 | 242 | 4.8 | 11.3 | 0.00 | 0.15 | 0.00 | 50 | 1008.1 |
| 20260503185542 | 9 | 238 | 4.8 | 11.3 | 0.00 | 0.15 | 0.00 | 48 | 1008.2 |
| 20260503185042 | 10 | 246 | 3.2 | 6.4 | 0.00 | 0.15 | 0.00 | 48 | 1008.2 |
| 20260503184542 | 10 | 318 | 1.6 | 6.4 | 0.00 | 0.15 | 0.00 | 49 | 1008.2 |
| 20260503184041 | 10 | 313 | 1.6 | 8.0 | 0.00 | 0.15 | 0.00 | 51 | 1008.2 |
| 20260503183541 | 10 | 238 | 3.2 | 8.0 | 0.00 | 0.15 | 0.00 | 49 | 1008.2 |
| 20260503183043 | 10 | 323 | 3.2 | 6.4 | 0.00 | 0.15 | 0.00 | 50 | 1008.3 |
| 20260503182539 | 10 | 287 | 1.6 | 6.4 | 0.00 | 0.15 | 0.00 | 51 | 1008.3 |
| 20260503182039 | 10 | 347 | 1.6 | 6.4 | 0.00 | 0.15 | 0.00 | 50 | 1008.4 |
| 20260503181538 | 10 | 314 | 3.2 | 9.7 | 0.00 | 0.15 | 0.00 | 52 | 1008.4 |
| 20260503181038 | 9 | 334 | 3.2 | 9.7 | 0.00 | 0.15 | 0.00 | 51 | 1008.4 |
| 20260503180537 | 9 | 300 | 1.6 | 4.8 | 0.00 | 0.15 | 0.00 | 51 | 1008.4 |
| 20260503180037 | 9 | 288 | 1.6 | 3.2 | 0.00 | 0.15 | 0.00 | 51 | 1008.4 |
| 20260503175536 | 9 | 288 | 0.0 | 8.0 | 0.00 | 0.15 | 0.00 | 50 | 1008.5 |
| 20260503175035 | 10 | 313 | 3.2 | 8.0 | 0.00 | 0.15 | 0.00 | 52 | 1008.5 |
| 20260503174535 | 10 | 259 | 3.2 | 8.0 | 0.00 | 0.15 | 0.00 | 52 | 1008.5 |
| 20260503174037 | 9 | 327 | 3.2 | 6.4 | 0.00 | 0.15 | 0.00 | 52 | 1008.6 |
| 20260503173534 | 9 | 248 | 3.2 | 6.4 | 0.00 | 0.15 | 0.00 | 51 | 1008.5 |
| 20260503173056 | 9 | 254 | 3.2 | 6.4 | 0.00 | 0.15 | 0.00 | 51 | 1008.6 |
| 20260503172536 | 9 | 74 | 0.0 | 6.4 | 0.00 | 0.15 | 0.00 | 52 | 1008.6 |
| 20260503172033 | 9 | 77 | 3.2 | 6.4 | 0.00 | 0.15 | 0.00 | 52 | 1008.7 |
| 20260503171535 | 9 | 237 | 3.2 | 6.4 | 0.00 | 0.15 | 0.00 | 56 | 1008.7 |
| 20260503171032 | 9 | 241 | 3.2 | 8.0 | 0.00 | 0.15 | 0.00 | 54 | 1008.7 |
| 20260503170532 | 8 | 218 | 1.6 | 11.3 | 0.00 | 0.15 | 0.00 | 54 | 1008.8 |
| 20260503150525 | 10 | 296 | 3.2 | 9.7 | 0.00 | 0.15 | 0.00 | 54 | 1009.7 |
| 20260503131059 | 8 | 244 | 3.2 | 6.4 | 0.00 | 0.15 | 0.00 | 75 | 1010.6 |
| 20260503130558 | 7 | 237 | 3.2 | 6.4 | 0.00 | 0.15 | 0.00 | 75 | 1010.6 |
| 20260503130108 | 7 | 263 | 1.6 | 8.0 | 0.00 | 0.15 | 0.00 | 74 | 1010.6 |